COSMOS 411

Satellite information

Favourite Embed

Satellite Type and Status

PAYLOADIN ORBIT

Key statistics

Satellite COSMOS 411 at a glance.

Uptime

19725

Days in orbit

Revolutions

≈ 12.6

Per day

Orbit

LEO

Low Earth Orbit

Inclination

74.0

Latest

Satellite identification and parameters

Extended collection of information and parameters for COSMOS 411.

Object identification

Identified? True

Debris? False

Object name: COSMOS 411

International designator: 1971-041A

Object number (NORAD): 5210

Object ID (CCSDS): 5210

Country: COMMONWEALTH OF INDEPENDENT STATES (CIS)

Current information (Y/N): Y

RCS size: MEDIUM

Orbital parameters

Period: 113.835 minutes

Inclination: 74.012 deg

SMA: 7780.555 km

Apoapsis: 1490.175 km

Periapsis: 1314.664 km

RAAN: 116.808 deg

Eccentricy: 0.0112788

Argument of periapsis: 252.996 deg

Mean anomaly: 114.3933 deg

Mean motion: 12.6498952 rev/day

Mean motion (dot): 0.00000008 rev/day2

B* drag term: 0.00013249 1/REarth

Two-line elements (TLE)

Creation date: May 8, 2025, 3:01 a.m.

Reference frame: TEME

Reference center: EARTH

Epoch: May 7, 2025, 9:20 p.m. UTC

TLE line 0: 0 COSMOS 411

TLE line 1: 1 05210U 71041A 25127.88910543 .00000008 00000-0 13249-3 0 9996

TLE line 2: 2 05210 74.0120 116.8080 0112788 252.9960 114.3933 12.64989520493611

Live tracking on map

Real-time ground track for satellite COSMOS 411.

In-orbit conjunctions

A list of the most updated potential collisions computed for object COSMOS 411.

Target Orbit TCA Probability of collision Miss distance Type
COSMOS 2251 DEB LEO 2024-07-04 04:46:35 0.000523368 195.0 (m) DEBRIS

Associated space launch

Military communications satellites

COSMOS 411 was lifted into orbit during the mission ‘Kosmos-3M | Strela-1M 9-16’, on board a Kosmos-3M space rocket.

The launch took place on May 7, 1971, 2:20 p.m. from 132/1 (132L).

For more information about the launch, click the button.

Launch to space Kosmos-3M | Strela-1M 9-16
Kosmos-3M | Strela-1M 9-16

Agency: N/A

Status: Launch Successful

Launch date: May 7, 1971, 2:20 p.m. UTC

Rocket: Kosmos-3M

Launch pad: 132/1 (132L)

Location: Plesetsk Cosmodrome, Russian Federation

...

Latest news about this satellite

There are no fresh news available about this satellite. Check back as we update our databases every day.


Newsletter sign-up

Weekly statistics, charts and insights to help you stay on top of the space industry.